EHI
0 0 1 0 0 0 1 3 3 3 4 5 4 3 4 3 3 5 5 6 7 6 5 7 9 10 9 7 6 4 3 3 3 1 0 0 0 0 0 0 0 0 0
0 0 1 0 0 0 2 2 2 1 2 2 2 2 3 2 2 2 3 4 5 4 3 3 5 6 7 7 6 5 4 3 3 2 1 0 0 0 0 0 0 0 0
0 0 0 0 0 0 1 1 1 0 0 0 1 2 3 2 0 0 1 2 3 3 1 0 1 3 5 6 6 5 4 3 2 2 1 0 0 0 0 0 0 0 0
0 0 0 0 0 0 0 0 0 0 0 0 1 2 2 1 0 1 2 2 1 1 0 0 0 1 3 3 3 3 2 1 1 1 0 0 0 0 0 0 0 0 0
0 0 0 0 0 0 0 0 0 0 0 0 1 1 1 0 0 1 2 2 1 0 0 0 0 1 1 1 1 2 2 1 0 0 0 0 0 0 0 0 0 0 0
0 0 0 0 0 0 0 0 0 0 0 0 0 1 1 0 0 0 1 1 0 0 0 0 0 0 0 0 0 1 1 1 0 0 0 0 0 0 0 0 0 0 0
0 0 0 0 0 0 0 0 0 0 0 0 0 0 1 0 0 0 0 0 0 0 0 0 0 0 0 0 0 0 0 0 0 0 0 0 0 0 0 0 0 0 0
0 0 0 0 0 0 0 0 0 0 0 0 0 0 0 0 0 0 0 0 0 0 0 0 0 0 0 0 0 0 0 0 0 0 0 0 0 0 0 0 0 0 0
0 0 0 0 0 0 0 0 0 0 0 0 0 1 1 1 0 0 0 0 0 0 0 0 0 0 0 0 0 0 0 0 0 0 0 0 0 0 0 0 0 0 0
0 0 0 0 0 0 0 0 0 0 0 0 0 1 2 1 0 0 0 0 0 0 0 0 0 0 0 0 0 0 0 0 0 0 0 0 0 0 0 0 0 0 0
0 0 0 0 0 0 0 0 0 0 0 0 0 1 1 1 0 0 0 0 0 0 0 0 0 0 0 0 0 0 0 0 0 0 0 0 0 0 0 0 0 0 0
0 0 0 0 0 0 0 0 0 0 0 0 0 0 0 0 0 0 0 0 0 0 0 0 0 0 0 0 0 0 0 0 0 0 0 0 0 0 0 0 0 0 0
0 0 0 0 0 0 0 0 0 0 0 0 0 0 0 0 0 0 0 0 0 0 0 0 0 0 0 0 0 0 0 0 0 0 0 0 0 0 0 0 0 0 0
0 0 0 0 0 0 0 0 0 0 0 0 0 0 0 0 0 0 0 0 0 0 0 0 0 0 0 0 0 0 0 0 0 0 0 0 0 0 0 0 0 0 0
0 0 0 0 0 0 0 0 0 0 0 0 0 0 0 0 0 0 0 0 0 0 0 0 0 0 0 0 0 0 0 0 0 0 0 0 0 0 0 0 0 0 0
0 0 0 0 0 0 0 0 0 0 0 0 0 0 0 0 0 0 0 0 0 0 0 0 0 0 0 0 0 0 0 0 0 0 0 0 0 0 0 0 0 1 1
0 0 0 0 0 0 0 0 0 0 0 0 0 0 0 0 0 0 0 0 0 0 0 0 0 0 0 0 0 0 0 0 0 0 0 0 0 0 0 0 0 0 0
0 0 0 0 0 0 0 0 0 0 0 0 0 0 0 0 0 0 0 0 0 0 0 0 0 0 0 0 0 0 0 0 0 0 0 0 0 0 0 0 0 0 0
0 0 0 0 0 0 0 0 0 0 0 0 0 0 0 0 0 0 0 0 0 0 0 0 0 0 0 0 0 0 0 0 0 0 0 0 0 0 0 0 0 0 0
0 0 0 0 0 0 0 0 0 0 0 0 0 0 0 0 0 0 0 0 0 0 0 0 0 0 0 0 0 0 0 0 0 0 0 0 0 0 0 0 0 0 0
0 0 0 0 0 0 0 0 0 0 0 0 0 0 0 0 0 0 0 0 0 0 0 0 0 0 0 0 0 0 0 0 0 0 0 0 0 0 0 0 0 0 0
0 0 0 0 0 0 0 0 0 0 0 0 0 0 0 0 0 0 0 0 0 0 0 0 0 0 0 0 0 0 0 0 0 0 0 0 0 0 0 0 0 0 0
0 0 0 0 0 0 0 0 0 0 0 0 0 0 0 0 0 0 0 0 0 0 0 0 0 0 0 0 0 0 0 0 0 0 0 0 0 0 0 0 0 0 0
0 0 0 0 0 0 0 0 0 0 0 0 0 0 0 0 0 0 0 0 0 0 0 0 0 0 0 0 0 0 0 0 0 0 0 0 0 0 0 0 0 0 0
0 0 0 0 0 0 0 0 0 0 0 0 0 0 0 0 0 0 0 0 0 0 0 0 0 0 0 0 0 0 0 0 0 0 0 0 0 0 0 0 0 0 0
0 0 0 0 0 0 0 0 0 0 0 0 0 0 0 0 0 0 0 0 0 0 0 0 0 0 0 0 0 0 0 0 0 0 0 0 0 0 0 0 0 0 0
Wind_Speed
1 1 4 7 8 9 10 10 11 11 12 12 12 11 11 11 11 10 10 10 9 9 8 8 8 8 8 8 8 7 7 6 6 6 6 6 6 5 5 5 5 2 4
1 1 6 8 9 10 10 11 11 12 12 12 11 11 10 10 10 9 9 9 9 8 8 8 7 8 8 7 7 7 6 6 5 5 6 6 5 5 5 5 4 3 4
3 3 5 8 9 10 11 11 11 12 11 11 11 10 10 9 9 9 9 8 8 7 7 7 7 7 7 7 6 6 5 5 5 5 5 3 3 4 4 4 4 5 5
4 4 5 9 10 11 11 11 11 11 11 10 10 9 9 8 8 8 7 7 7 6 6 6 6 6 6 6 6 6 5 5 5 5 3 2 2 3 4 4 4 5 5
4 4 5 10 10 11 11 11 11 10 10 9 9 8 8 8 7 7 6 6 6 5 5 5 5 5 6 6 6 5 5 5 5 5 3 2 2 3 4 4 4 4 5
4 4 5 10 10 10 10 10 10 10 9 8 8 7 7 7 7 6 6 5 5 4 4 4 4 5 5 5 5 5 4 5 5 3 3 2 2 2 3 4 4 4 5
4 3 4 9 10 10 9 9 9 8 8 8 7 7 6 6 6 6 5 5 4 3 3 4 4 4 4 4 4 4 4 5 4 3 2 2 1 2 3 3 4 4 5
4 4 4 8 9 8 8 8 8 7 7 7 6 6 6 6 6 6 5 5 4 4 4 3 3 3 3 3 4 4 4 4 3 2 2 1 1 2 3 3 4 4 5
4 4 4 4 5 6 7 7 7 6 6 6 6 5 5 5 5 5 5 5 4 3 4 4 3 3 3 3 3 3 4 5 3 1 1 1 1 2 3 3 4 4 5
3 3 3 4 4 4 4 6 6 6 6 6 6 5 5 6 6 6 6 5 5 4 4 4 4 4 4 4 4 4 5 5 3 2 1 1 2 3 4 4 4 4 5
2 2 2 3 3 3 3 5 6 7 8 8 7 7 6 4 4 4 6 7 6 6 5 5 5 5 5 5 5 6 5 2 2 2 1 2 3 4 4 4 4 4 4
1 0 1 1 2 3 3 4 3 3 4 4 3 4 3 3 3 5 7 8 8 7 7 7 6 6 5 3 4 5 2 3 2 2 2 3 4 4 4 5 5 5 5
2 1 1 1 1 2 2 2 2 2 3 3 4 4 3 3 3 4 3 4 5 6 4 5 5 3 3 2 2 3 3 3 2 2 3 5 5 5 5 5 5 5 5
2 2 1 2 2 2 2 2 2 2 2 2 3 3 3 2 3 3 2 3 3 2 3 3 2 3 4 3 3 4 4 3 2 2 3 7 7 7 7 7 6 6 6
3 2 2 2 2 2 2 2 2 2 2 2 2 3 3 2 2 3 2 3 3 3 3 3 3 4 4 4 4 5 5 4 4 4 3 8 9 8 8 8 8 7 7
3 3 2 3 3 3 3 2 2 2 2 3 3 3 3 2 2 2 3 3 3 3 2 3 3 4 4 4 6 5 5 4 5 5 4 6 9 10 10 10 9 9 8
4 3 3 4 4 4 4 3 3 2 3 3 3 3 3 3 3 3 3 3 3 3 3 3 4 4 4 5 6 6 5 5 5 5 5 4 5 9 12 12 11 10 10
5 4 4 5 5 5 4 4 3 3 3 3 3 3 4 4 4 3 3 3 3 3 3 4 4 4 5 5 5 5 5 5 6 5 5 5 5 5 8 13 12 12 11
5 5 5 5 5 5 5 4 4 3 4 3 3 3 4 4 4 3 3 3 3 3 4 4 4 3 4 4 5 5 5 5 5 6 6 6 6 6 5 9 13 13 13
5 5 6 6 5 5 4 3 3 4 3 3 3 4 4 4 4 4 3 4 3 4 4 4 5 5 4 3 5 6 5 5 5 5 5 5 5 6 6 7 6 8 14
5 5 5 6 4 4 3 3 2 2 2 3 3 4 4 4 4 4 3 4 4 4 4 3 3 5 4 3 4 4 4 5 6 5 5 5 6 6 6 7 6 5 6
5 5 5 5 5 3 2 2 2 2 1 1 2 4 5 4 4 4 4 3 4 4 5 4 3 3 3 3 3 3 3 4 5 6 5 6 6 5 6 7 7 6 6
6 6 6 5 5 4 3 3 3 3 3 3 3 3 4 4 4 4 4 4 4 4 3 4 3 4 3 3 3 3 3 1 2 4 5 5 6 6 5 5 7 7 7
6 5 5 5 5 4 4 4 4 3 2 1 1 2 3 5 4 4 4 4 4 4 4 3 3 3 3 2 2 3 2 3 3 1 3 4 5 6 6 6 7 7 7
6 5 5 5 4 4 4 5 4 3 2 1 2 3 3 4 5 4 4 4 4 4 4 4 4 4 3 2 2 2 3 3 3 3 2 3 3 4 4 5 5 5 6
5 5 5 6 4 4 4 4 5 5 4 3 2 2 2 2 3 4 4 4 4 4 4 4 4 5 4 4 3 2 2 2 2 2 2 1 2 3 3 4 5 5 5
Wind_Direction
348 345 89 95 96 98 98 100 98 98 97 95 95 96 95 94 94 91 86 85 84 83 84 84 83 81 79 78 76 76 80 80 77 76 78 79 72 67 74 77 71 51 61
111 60 101 99 97 98 96 95 95 94 92 91 91 92 92 92 92 91 88 85 82 78 77 77 77 77 75 72 69 67 69 71 73 72 70 68 67 63 66 73 67 59 51
83 66 91 101 99 97 94 92 92 91 92 91 90 89 90 91 90 87 86 82 78 76 75 74 72 71 71 66 63 60 59 62 67 68 61 43 40 62 63 64 59 52 41
84 74 94 98 96 94 93 92 91 90 91 91 90 88 87 87 87 87 86 83 78 76 73 71 67 66 65 62 55 51 52 58 68 69 50 24 17 61 60 53 48 44 35
73 70 92 98 97 95 94 93 91 91 89 88 87 86 83 80 80 82 83 84 81 75 69 66 60 58 54 50 48 45 50 60 66 63 47 29 15 45 52 46 41 36 29
77 69 92 100 99 97 94 90 88 88 87 86 84 82 79 74 72 71 71 72 73 70 64 58 52 50 47 39 40 40 53 62 64 58 45 26 7 41 51 50 40 29 23
87 70 92 102 100 97 94 90 87 85 85 82 79 76 71 65 61 62 63 66 67 68 64 55 48 46 41 34 34 39 62 68 77 64 44 14 340 33 51 44 37 30 21
92 67 68 95 97 93 89 87 86 83 79 77 72 65 61 57 53 53 53 54 55 53 50 49 42 43 39 33 37 42 55 63 74 60 40 1 332 46 48 34 33 29 23
77 66 46 46 58 69 75 77 76 73 67 62 59 54 49 43 41 40 36 36 41 46 47 47 43 44 43 47 52 58 71 78 74 49 37 355 0 51 46 35 28 28 21
73 59 47 41 39 32 30 49 56 55 51 45 39 36 34 29 26 20 17 19 28 40 49 47 49 54 50 50 60 78 79 77 61 49 14 344 28 45 43 31 24 23 21
86 47 41 38 31 27 19 30 32 33 34 34 25 26 32 24 15 8 12 22 31 41 49 47 50 53 48 40 57 72 75 70 64 42 6 9 40 44 40 31 22 18 20
172 286 41 39 24 20 23 32 19 25 25 27 24 23 23 28 20 25 18 23 29 32 35 38 40 44 47 34 47 64 65 68 59 32 13 31 42 44 41 35 28 24 28
194 201 163 113 49 38 27 24 20 20 22 21 24 28 34 35 24 23 18 15 18 27 26 26 33 34 42 49 56 63 69 65 49 24 11 32 38 38 35 34 31 32 32
178 202 196 143 103 64 51 34 30 33 29 22 20 33 48 43 31 23 24 13 18 17 25 29 35 39 45 53 66 67 67 63 50 30 11 31 35 35 35 36 37 39 35
184 193 182 143 129 102 72 48 52 42 40 34 34 37 59 57 38 31 27 22 20 22 32 33 43 51 47 47 55 62 61 59 51 39 16 30 36 31 32 34 39 38 38
177 161 141 126 126 109 91 79 60 49 48 47 42 43 59 63 54 46 39 30 22 19 33 46 55 61 55 55 53 52 54 54 50 43 30 24 29 33 33 35 38 37 39
162 142 138 127 114 109 101 87 69 48 52 49 37 39 52 60 62 60 50 36 19 20 43 53 55 60 62 59 52 48 49 47 49 42 34 29 23 29 32 36 36 37 39
143 135 136 125 114 107 97 83 68 52 53 45 36 40 45 52 59 60 52 32 19 36 49 60 53 63 58 59 55 42 39 38 40 41 38 34 28 23 22 31 34 35 38
144 130 115 113 115 107 94 80 68 56 48 36 35 39 40 47 51 60 52 32 34 49 46 61 55 67 70 68 68 51 40 40 35 40 38 35 32 29 23 25 31 33 36
127 120 115 110 110 106 92 75 58 47 36 32 31 32 38 41 48 57 54 39 42 57 51 56 68 61 63 66 73 61 45 40 42 36 32 32 33 33 29 28 24 24 32
124 124 128 128 131 125 105 93 81 55 23 22 24 30 35 41 47 54 54 45 44 59 61 67 78 69 50 34 72 53 33 39 46 34 27 32 30 27 31 30 24 21 19
150 146 141 144 148 145 122 118 113 106 64 34 11 28 28 35 39 55 57 54 50 60 58 55 70 82 50 30 84 83 39 16 18 24 26 33 26 22 30 32 25 24 20
166 169 163 162 157 149 129 107 83 59 38 25 17 15 13 29 41 50 54 59 53 60 65 57 65 93 92 42 48 109 117 122 2 7 22 28 25 28 23 23 27 23 22
185 172 158 157 155 152 145 136 130 122 112 61 17 15 23 33 40 45 53 58 57 56 59 55 61 79 103 89 53 51 88 133 120 51 5 12 27 32 25 24 19 19 20
177 167 159 151 153 155 153 146 132 122 125 97 63 51 36 30 35 41 51 58 58 56 58 59 62 66 77 99 95 84 70 60 71 111 61 358 9 13 18 15 16 15 15
166 159 155 152 157 155 152 148 147 144 137 118 93 73 41 29 29 35 51 56 58 57 57 61 66 70 70 79 80 81 99 99 94 100 107 44 11 347 356 10 18 9 11